KELVION BRAZED PHE GMBH
KELVION BRAZED PHE GMBH's Shipments Over Time
Supply Ratings
Shipment Reliability and Frequency Volume of Goods
Avg. Shipments per Month: 13.83 Average TEU per month: 16.54
Active Months: 12 Average TEU per Shipment: 1.20
Shipment Frequency Std. Dev.: 5.87
Shipments By Companies
Company Name Shipments
KELVION PRODUCTS INC 398 shipments
KELVION INC 364 shipments
QUESTOR SOLUTIONS & TECHNOLOGY 1 shipments
Shipments By HS Code
HS Code Shipments
841990 Machinery, plant and laboratory equipment; parts of equipment for treating materials by a process involving a change of temperature 629 shipments
840290.0 Boilers; steam or other vapour generating (other than central heating hot water boilers, capable also of producing low pressure steam), super heated water boilers 109 shipments
841950 Heat exchange units; not used for domestic purposes 20 shipments
400811 Rubber; vulcanised (other than hard rubber), in plates, sheets and strip of cellular rubber 1 shipments
730890 Iron or steel; structures and parts thereof, n.e.c. in heading 7308 1 shipments
830250.0 Base metal mountings, fittings and similar articles for furniture, doors, staircases, windows, trunks, chests etc, castors with mountings of base metal, automatic door closers of base metal 1 shipments
841950.0 Machinery, plant (not domestic), or laboratory equipment; electrically heated or not, (excluding items in 85.14) for the treatment of materials by a process involving change of temperature; including instantaneous or non electric storage water heaters 1 shipments
841958 Machinery, plant (not domestic), or laboratory equipment; electrically heated or not, (excluding items in 85.14) for the treatment of materials by a process involving change of temperature; including instantaneous or non electric storage water heaters 1 shipments
to show market analysis.
Similar Suppliers
to see more.
Latest Shipments
Arrival Date Bill Of Lading Consignee Weight HS Code Description
2026-07-26 CHSL556618474HAM KELVION PRODUCTS INC 114.0 kg 841990 STC PARTS FOR HEAT EXCHANGER HS CODE 84199085 HBL 556618474HAM
2026-07-26 CHSL556924182HAM KELVION PRODUCTS INC 32.0 kg 841990 STC PARTS FOR HEAT EXCHANGER HS CODE 84199085 HBL 556924182HAM
2026-07-26 CHSL557089218HAM KELVION PRODUCTS INC 342.0 kg 841990 STC PARTS FOR HEAT EXCHANGER HS CODE 84199085 HBL 557089218HAM
2026-07-26 CHSL558083440HAM KELVION PRODUCTS INC 2233.0 kg 841990 STC PARTS FOR HEAT EXCHANGER HS CODE 84199085 HBL 558083440HAM
2026-07-26 CHSL558093262HAM KELVION PRODUCTS INC 6186.0 kg 841990 STC PARTS FOR HEAT EXCHANGER HS CODE 84199085 HBL 472247186HAM
2026-07-12 CHSL556036476HAM KELVION PRODUCTS INC 2832.0 kg 841990 STC PARTS FOR HEAT EXCHANGER HS CODE 84199085 HBL 556036476HAM
2026-07-12 CHSL556452586HAM KELVION PRODUCTS INC 6931.0 kg 841990 STC PARTS FOR HEAT EXCHANGER HS CODE 84199085 HBL 556452586HAM
2026-07-12 CHSL556036932HAM KELVION PRODUCTS INC 836.0 kg 841990 STC PARTS FOR HEAT EXCHANGER HS CODE 84199085 HBL 556036932HAM
2026-07-12 CHSL555873146HAM KELVION PRODUCTS INC 866.0 kg 841990 STC PARTS FOR HEAT EXCHANGER HS CODE 84199085 HBL 555873146HAM
2026-07-12 CHSL556450148HAM KELVION PRODUCTS INC 5817.0 kg 841990 STC PARTS FOR HEAT EXCHANGER HS CODE 84199085 HBL 556450148HAM
2026-07-12 CHSL556613932HAM KELVION PRODUCTS INC 895.0 kg 841990 STC PARTS FOR HEAT EXCHANGER HS CODE 84199085 HBL 556613932HAM
2026-07-12 CHSL557262254HAM KELVION PRODUCTS INC 2419.0 kg 841990 STC PARTS FOR HEAT EXCHANGER HS CODE 84199085 HBL 557262254HAM
2026-07-12 CHSL557263651HAM KELVION PRODUCTS INC 736.0 kg 841990 STC PARTS FOR HEAT EXCHANGER HS CODE 84199085 HBL 557263651HAM
2026-07-01 CHSL555214192HAM KELVION PRODUCTS INC 7380.0 kg 841990 STC PARTS FOR HEAT EXCHANGER HS CODE 84199085 HBL 555214192HAM
2026-07-01 CHSL555225330HAM KELVION PRODUCTS INC 47.0 kg 841990 STC PARTS FOR HEAT EXCHANGER HS CODE 84199085 HBL 555225330HAM
2026-07-01 CHSL555213652HAM KELVION PRODUCTS INC 1024.0 kg 841990 STC PARTS FOR HEAT EXCHANGER HS CODE 84199085 HBL 555213652HAM
2026-07-01 CHSL555215113HAM KELVION PRODUCTS INC 1464.0 kg 841990 STC PARTS FOR HEAT EXCHANGER HS CODE 84199085 HBL 555215113HAM
2026-07-01 CHSL555062049HAM KELVION PRODUCTS INC 193.0 kg 841990 STC PARTS FOR HEAT EXCHANGER HS CODE 84199085 HBL 555062049HAM
2026-07-01 CHSL555375933HAM KELVION PRODUCTS INC 2339.0 kg 841990 STC PARTS FOR HEAT EXCHANGER HS CODE 84199085 HBL 472247186HAM
2026-07-01 CHSL555370879HAM KELVION PRODUCTS INC 152.0 kg 841990 STC PARTS FOR HEAT EXCHANGER HS CODE 84199085 HBL 555370879HAM
2026-07-01 CHSL555376695HAM KELVION PRODUCTS INC 1362.0 kg 841990 STC PARTS FOR HEAT EXCHANGER HS CODE 84199085 HBL 555376695HAM
2026-06-21 CHSL553265466HAM KELVION PRODUCTS INC 589.0 kg 841990 STC PARTS FOR HEAT EXCHANGER HS CODE 84199085 HBL 472247186HAM
2026-06-21 CHSL553267568HAM KELVION PRODUCTS INC 456.0 kg 841990 STC PARTS FOR HEAT EXCHANGER HS CODE 84199085 HBL 553267568HAM
2026-06-21 CHSL553401882HAM KELVION PRODUCTS INC 261.0 kg 841990 STC PARTS FOR HEAT EXCHANGER HS CODE 84199085 HBL 553401882HAM
2026-06-21 CHSL554172124HAM KELVION PRODUCTS INC 552.0 kg 841990 STC PARTS FOR HEAT EXCHANGER HS CODE 84199085 HBL 554172124HAM
2026-06-21 CHSL554175690HAM KELVION PRODUCTS INC 365.0 kg 841990 STC PARTS FOR HEAT EXCHANGER HS CODE 84199085 HBL 554175690HAM
2026-06-21 CHSL554578684HAM KELVION PRODUCTS INC 3088.0 kg 841990 STC PARTS FOR HEAT EXCHANGER HS CODE 84199085 HBL 554578684HAM
2026-06-06 CHSL551294164HAM KELVION PRODUCTS INC 1057.0 kg 841990 STC PARTS FOR HEAT EXCHANGER HS CODE 84199085 HBL 551294164HAM
2026-06-06 CHSL551923909HAM KELVION PRODUCTS INC 227.0 kg 841990 STC PARTS FOR HEAT EXCHANGER HS CODE 84199085 HBL 551923909HAM
2026-06-06 CHSL552649762HAM KELVION PRODUCTS INC 691.0 kg 841990 STC PARTS FOR HEAT EXCHANGER HS CODE 84199085 HBL 552649762HAM
2026-06-06 CHSL552939996HAM KELVION PRODUCTS INC 678.0 kg 841990 STC PARTS FOR HEAT EXCHANGER HS CODE 84199085 HBL 552939996HAM
2026-06-06 CHSL552941531HAM KELVION PRODUCTS INC 2327.0 kg 841990 STC PARTS FOR HEAT EXCHANGER HS CODE 84199085 HBL 552941531HAM
2026-06-06 CHSL552810727HAM KELVION PRODUCTS INC 91.0 kg 841990 STC PARTS FOR HEAT EXCHANGER HS CODE 84199085 HBL 552810727HAM
2026-05-18 CHSL550393683HAM KELVION PRODUCTS INC 436.0 kg 841990 STC PARTS FOR HEAT EXCHANGER HS CODE 84199085 HBL 550393683HAM
2026-05-18 CHSL550397593HAM KELVION PRODUCTS INC 473.0 kg 841990 STC PARTS FOR HEAT EXCHANGER HS CODE 84199085 HBL 550397593HAM
2026-05-18 CHSL550688351HAM KELVION PRODUCTS INC 19.0 kg 841990 STC PARTS FOR HEAT EXCHANGER HS CODE 84199085 HBL 550688351HAM
2026-05-18 CHSL551149788HAM KELVION PRODUCTS INC 1128.0 kg 841990 STC PARTS FOR HEAT EXCHANGER HS CODE 84199085 HBL 551149788HAM
2026-05-18 CHSL551152725HAM KELVION PRODUCTS INC 1999.0 kg 841990 STC PARTS FOR HEAT EXCHANGER HS CODE 84199085 HBL 472247186HAM
2026-05-18 CHSL551155007HAM KELVION PRODUCTS INC 3094.0 kg 841990 STC PARTS FOR HEAT EXCHANGER HS CODE 84199085 HBL 551155007HAM
2026-05-15 CHSL549779065HAM KELVION PRODUCTS INC 30.0 kg 841990 STC PARTS FOR HEAT EXCHANGER HS CODE 84199085 HBL 549779065HAM
2026-05-15 CHSL549922190HAM KELVION PRODUCTS INC 3222.0 kg 841990 STC PARTS FOR HEAT EXCHANGER HS CODE 84199085 HBL 549922190HAM
2026-04-25 CHSL547238808HAM KELVION PRODUCTS INC 1004.0 kg 840290.0 STC PARTS FOR HEAT EXCHANGER HS CODE HBL HAM
2026-04-25 CHSL547240213HAM KELVION PRODUCTS INC 5.0 kg 840290.0 STC PARTS FOR HEAT EXCHANGER HS CODE HBL HAM
2026-04-25 CHSL547529658HAM KELVION PRODUCTS INC 1411.0 kg 840290.0 STC PARTS FOR HEAT EXCHANGER HS CODE HBL HAM
2026-04-25 CHSL547532282HAM KELVION PRODUCTS INC 1957.0 kg 840290.0 STC PARTS FOR HEAT EXCHANGER HS CODE HBL HAM
2026-04-25 CHSL547879797HAM KELVION PRODUCTS INC 179.0 kg 840290.0 STC PARTS FOR HEAT EXCHANGER HS CODE HBL HAM
2026-04-25 CHSL548327774HAM KELVION PRODUCTS INC 630.0 kg 840290.0 STC PARTS FOR HEAT EXCHANGER HS CODE HBL HAM
2026-04-25 CHSL548644086HAM KELVION PRODUCTS INC 80.0 kg 840290.0 STC PARTS FOR HEAT EXCHANGER HS CODE HBL HAM
2026-04-11 CHSL545091054HAM KELVION PRODUCTS INC 1638.0 kg 840290.0 STC PARTS FOR HEAT EXCHANGER HS CODE HBL HAM
2026-04-11 CHSL545225827HAM KELVION PRODUCTS INC 50.0 kg 840290.0 STC PARTS FOR HEAT EXCHANGER HS CODE HBL HAM
Contact information Request
to request contact information.
Other address
REMSAER STRASSE 2A 04603 NOBITZ-WILCHWITZ
REMSAER STRASSE 2A 04603 NOBITZ - WILCHWITZ
KNAUSCHE STRASSE 1 ALTENBURG 04600 DE
REMSAER STRASSE 2A 04603 NOBITZ - WILCHWITZ